Home > Weather > Winsen (Luhe) > Past weeks

Flag for Germany Weather for the Past 2 Weeks in Winsen (Luhe), Lower Saxony, Germany

Now
46 °F

Light rain. Broken clouds.


Feels Like: 46 °F
Forecast: 41 / 58 °F
Wind: 2 mph from North

Location: Hamburg-Finkenwerder

Current Time: Apr 30, 2016 at 3:31:56 PM

Latest Report: Apr 30, 2016 at 2:50 PM


Visibility: N/A

Pressure: 30.09 "Hg

Humidity: 93%

Dew Point: 45 °F

Location of Winsen (Luhe)Location

Historic Weather in Winsen (Luhe) — Graph

°F

Winsen (Luhe) Temperature Yesterday

Maximum temperature yesterday: 55 °F (at 2:20 PM)
Minimum temperature yesterday: 36 °F (at 6:20 AM)
Average temperature yesterday: 48 °F

High & Low Weather Summary for the Past Weeks

 TemperatureHumidityPressure
High57 °F (Apr 16, 2:20 PM)100% (Apr 15, 1:20 PM)30.42 "Hg (Apr 15, 1:20 PM)
Low30 °F (Apr 25, 5:50 AM)44% (Apr 29, 2:20 PM)29.36 "Hg (Apr 26, 2:04 PM)
Average46 °F83%29.91 "Hg
* Reported Apr 15 1:20 PM — Apr 30 1:50 PM, Winsen (Luhe), Weather by CustomWeather, © 2016

Note: Actual official high and low records may vary slightly from our data, if they occured in-between our weather recording intervals... More about our weather records

Advertising

Winsen (Luhe) Weather History for the Previous 24 Hours

Scroll right to see more
 ConditionsComfort  
Time TempWeatherWind HumidityBarometerVisibility
1:50 PM
Sat, Apr 30
45 °FLight rain. Broken clouds.6 mph100%30.09 "HgN/A
1:20 PM45 °FLight rain. Broken clouds.6 mph100%30.09 "HgN/A
12:50 PM45 °FDrizzle. Broken clouds.6 mph100%30.09 "HgN/A
12:20 PM45 °FDrizzle. Broken clouds.6 mph100%30.07 "HgN/A
11:50 AM45 °FDrizzle. Broken clouds.8 mph100%30.07 "HgN/A
11:20 AM45 °FDrizzle. Broken clouds.10 mph100%30.07 "Hg6 mi
10:50 AM45 °FDrizzle. Partly sunny.10 mph100%30.07 "Hg6 mi
10:20 AM46 °FDrizzle. Partly sunny.7 mph100%30.07 "Hg6 mi
9:50 AM48 °FDrizzle. Partly sunny.6 mph100%30.04 "Hg5 mi
8:50 AM46 °FDrizzle. Partly sunny.5 mph100%30.04 "Hg5 mi
7:50 PM
Fri, Apr 29
46 °FPassing clouds.5 mph100%29.98 "HgN/A
7:20 PM46 °FScattered clouds.8 mph100%29.98 "HgN/A
6:50 PM46 °FPassing clouds.10 mph100%29.98 "HgN/A
6:20 PM48 °FLight rain. Scattered clouds.12 mph100%29.98 "HgN/A
5:50 PM48 °FLight rain. Scattered clouds.13 mph100%29.98 "HgN/A
5:20 PM50 °FLight rain. Scattered clouds.12 mph94%29.95 "HgN/A
4:50 PM52 °FLight rain. Scattered clouds.13 mph67%29.95 "HgN/A
4:20 PM52 °FSprinkles. Scattered clouds.17 mph62%29.95 "HgN/A
3:50 PM52 °FSprinkles. Scattered clouds.21 mph58%29.92 "HgN/A
3:20 PM54 °FScattered clouds.24 mph51%29.92 "HgN/A
Weather by CustomWeather, © 2016

See weather overviewHow to use our weather pages